This is the latest recevied weather packets stored in our database for station/object KC3QJO. If no packets are shown the sender has not sent any weather packets the latest 10 day(s).
| Time | Temp. | Humidity | Pressure | Rain* | Wind** | Luminosity | Snow |
|---|---|---|---|---|---|---|---|
| 1777494657 | 13.89° C | 73% | 1009.3 hPa | 0 mm | - | 137 W/m² | - |
| 1777491351 | 15° C | 63% | 1010.1 hPa | 0 mm | - | 58 W/m² | - |
| 1777490751 | 15° C | 63% | 1010.2 hPa | 0 mm | - | 70 W/m² | - |
| 1777489851 | 15° C | 65% | 1010.5 hPa | 0 mm | - | 63 W/m² | - |
| 1777488954 | 15.56° C | 60% | 1010.8 hPa | 0 mm | - | 86 W/m² | - |
| 1777486251 | 15.56° C | 60% | 1011.3 hPa | 0 mm | - | 272 W/m² | - |
| 1777485652 | 15.56° C | 59% | 1011.4 hPa | 0 mm | - | 250 W/m² | - |
| 1777484151 | 15° C | 61% | 1011.9 hPa | 0 mm | - | 181 W/m² | - |
| 1777483854 | 15° C | 60% | 1011.8 hPa | 0 mm | - | 246 W/m² | - |
| 1777481453 | 14.44° C | 60% | 1012.3 hPa | 0 mm | - | 410 W/m² | - |
| 1777480254 | 13.89° C | 62% | 1012.7 hPa | 0 mm | - | 445 W/m² | - |
| 1777479654 | 13.89° C | 63% | 1012.8 hPa | 0 mm | - | 394 W/m² | - |
| 1777479356 | 13.33° C | 62% | 1012.7 hPa | 0 mm | - | 432 W/m² | - |
| 1777478151 | 13.33° C | 63% | 1013 hPa | 0 mm | - | 281 W/m² | - |
| 1777477250 | 12.78° C | 62% | 1013.3 hPa | 0 mm | - | 248 W/m² | - |
| 1777476653 | 12.78° C | 64% | 1013.3 hPa | 0 mm | - | 308 W/m² | - |
| 1777471851 | 11.11° C | 62% | 1013.5 hPa | 0 mm | - | 237 W/m² | - |
| 1777471550 | 11.67° C | 61% | 1013.4 hPa | 0 mm | - | 200 W/m² | - |
| 1777471256 | 11.67° C | 63% | 1013.4 hPa | 0 mm | - | 287 W/m² | - |
| 1777470353 | 11.11° C | 64% | 1013.7 hPa | 0 mm | - | 195 W/m² | - |
| 1777469757 | 11.11° C | 65% | 1013.6 hPa | 0 mm | - | 221 W/m² | - |
| 1777467353 | 10.56° C | 66% | 1014 hPa | 0 mm | - | 104 W/m² | - |
| 1777465858 | 10.56° C | 67% | 1014.4 hPa | 0 mm | - | 111 W/m² | - |
| 1777465252 | 10.56° C | 67% | 1014.4 hPa | 0 mm | - | 74 W/m² | - |
| 1777464354 | 10.56° C | 67% | 1014.6 hPa | 0 mm | - | 77 W/m² | - |
* Rain latest hour (hover to see other rain measurements)
** Current wind speed in m/s (hover to see current wind gust speed)